User: anonymous   Login
Location: Asni�res
(49.1337°N, 2.3555°E)
Time: 18:20:50
(UTC+00:00)
Language:

Meteor 1-21 Rocket - Orbit

View from above orbital plane
View from above orbital plane
View from above satellite
View from above satellite

Ground track
Ground track

The orbit data is extracted from the following two-line orbital elements,

1 07715U 75023B   22020.75553071 -.00000094  00000-0 -63831-4 0  9996
2 07715  81.2200  40.9561 0053047  90.7284 269.9964 14.06812895401351
Epoch (UTC): 20 January 2022 18:07:57
Eccentricity: 0.0053047
inclination: 81.2200°
perigee height: 832 km
apogee height: 909 km
right ascension of ascending node: 40.9561°
argument of perigee: 90.7284°
revolutions per day: 14.06812895
mean anomaly at epoch: 269.9964°
orbit number at epoch: 40135

The dashed part of the orbit path shows where the satellite is in the earth's shadow,  

DLR